Time,TemperatureF,DewpointF,PressureIn,WindDirection,WindDirectionDegrees,WindSpeedMPH,WindSpeedGustMPH,Humidity,HourlyPrecipIn,Conditions,Clouds,dailyrainin,SolarRadiationWatts/m^2,SoftwareType,DateUTC
2015-04-18 00:00:00,57.8,54.3,29.87,ENE,75,0.0,0.0,88,0.00,,---,0.52,0.00,VWS V14.01,2015-04-18 05:00:00,
2015-04-18 00:05:00,57.7,54.2,29.87,ENE,75,0.0,0.0,88,0.00,,---,0.00,0.00,VWS V14.01,2015-04-18 05:05:00,
2015-04-18 00:10:00,57.7,54.2,29.87,ENE,75,0.0,0.0,88,0.00,,---,0.00,0.00,VWS V14.01,2015-04-18 05:10:00,
2015-04-18 00:15:00,57.6,54.4,29.87,ENE,75,0.0,0.0,89,0.00,,---,0.00,0.00,VWS V14.01,2015-04-18 05:15:00,
2015-04-18 00:20:00,57.5,54.3,29.88,ENE,75,0.0,0.0,89,0.00,,---,0.00,0.00,VWS V14.01,2015-04-18 05:20:00,
2015-04-18 00:25:00,57.4,54.2,29.88,ENE,75,0.0,0.0,89,0.00,,---,0.00,0.00,VWS V14.01,2015-04-18 05:25:00,
2015-04-18 00:30:00,57.4,54.2,29.88,ENE,75,0.0,0.0,89,0.00,,---,0.00,0.00,VWS V14.01,2015-04-18 05:30:00,
2015-04-18 00:35:00,57.3,54.1,29.88,ENE,75,0.0,0.0,89,0.00,,---,0.00,0.00,VWS V14.01,2015-04-18 05:35:00,
2015-04-18 00:40:00,57.3,54.1,29.88,ENE,75,0.0,0.0,89,0.00,,---,0.00,0.00,VWS V14.01,2015-04-18 05:40:00,
2015-04-18 00:45:00,57.2,54.0,29.88,ENE,75,0.0,0.0,89,0.00,,---,0.00,0.00,VWS V14.01,2015-04-18 05:45:00,
2015-04-18 00:50:00,57.2,54.0,29.88,ENE,75,0.0,0.0,89,0.00,,---,0.00,0.00,VWS V14.01,2015-04-18 05:50:00,
2015-04-18 00:55:00,57.1,53.9,29.88,ENE,75,0.0,0.0,89,0.00,,---,0.00,0.00,VWS V14.01,2015-04-18 05:55:00,
2015-04-18 01:00:00,57.0,53.8,29.88,ENE,75,0.0,0.0,89,0.00,,---,0.00,0.00,VWS V14.01,2015-04-18 06:00:00,
2015-04-18 01:05:00,56.9,53.7,29.88,ENE,75,0.0,0.0,89,0.00,,---,0.00,0.00,VWS V14.01,2015-04-18 06:05:00,
2015-04-18 01:10:00,56.8,53.6,29.88,ENE,75,0.0,0.0,89,0.00,,---,0.00,0.00,VWS V14.01,2015-04-18 06:10:00,
2015-04-18 01:15:00,56.7,53.5,29.88,ENE,75,0.0,0.0,89,0.00,,---,0.00,0.00,VWS V14.01,2015-04-18 06:15:00,
2015-04-18 01:20:00,56.6,53.4,29.88,ENE,75,0.0,0.0,89,0.00,,---,0.00,0.00,VWS V14.01,2015-04-18 06:20:00,
2015-04-18 01:25:00,56.4,53.2,29.88,ENE,75,0.0,0.0,89,0.00,,---,0.00,0.00,VWS V14.01,2015-04-18 06:25:00,
2015-04-18 01:30:00,56.2,53.0,29.88,ENE,75,0.0,0.0,89,0.00,,---,0.00,0.00,VWS V14.01,2015-04-18 06:30:00,
2015-04-18 01:35:00,56.1,52.9,29.88,ENE,75,0.0,0.0,89,0.00,,---,0.00,0.00,VWS V14.01,2015-04-18 06:35:00,
2015-04-18 01:40:00,55.9,52.7,29.88,ENE,75,0.0,0.0,89,0.00,,---,0.00,0.00,VWS V14.01,2015-04-18 06:40:00,
2015-04-18 01:45:00,55.8,52.6,29.88,ENE,75,0.0,0.0,89,0.00,,---,0.00,0.00,VWS V14.01,2015-04-18 06:45:00,
2015-04-18 01:50:00,55.7,52.5,29.88,ENE,75,0.0,0.0,89,0.00,,---,0.00,0.00,VWS V14.01,2015-04-18 06:50:00,
2015-04-18 01:55:00,55.7,52.5,29.88,ENE,75,0.0,0.0,89,0.00,,---,0.00,0.00,VWS V14.01,2015-04-18 06:55:00,
2015-04-18 02:00:00,55.7,52.5,29.88,ENE,75,0.0,0.0,89,0.00,,---,0.00,0.00,VWS V14.01,2015-04-18 07:00:00,
2015-04-18 02:05:00,55.6,52.4,29.88,ENE,75,0.0,0.0,89,0.00,,---,0.00,0.00,VWS V14.01,2015-04-18 07:05:00,
2015-04-18 02:10:00,55.5,52.3,29.87,ENE,75,0.0,0.0,89,0.00,,---,0.00,0.00,VWS V14.01,2015-04-18 07:10:00,
2015-04-18 02:14:00,55.4,52.2,29.87,ENE,75,0.0,0.0,89,0.00,,---,0.00,0.00,VWS V14.01,2015-04-18 07:14:00,
2015-04-18 02:19:00,55.3,52.1,29.88,ENE,75,0.0,0.0,89,0.00,,---,0.00,0.00,VWS V14.01,2015-04-18 07:19:00,
2015-04-18 02:24:00,55.3,52.1,29.88,ENE,75,0.0,0.0,89,0.00,,---,0.00,0.00,VWS V14.01,2015-04-18 07:24:00,
2015-04-18 02:29:00,55.1,51.9,29.88,ENE,75,0.0,0.0,89,0.00,,---,0.00,0.00,VWS V14.01,2015-04-18 07:29:00,
2015-04-18 02:34:00,55.1,51.9,29.88,ENE,75,0.0,0.0,89,0.00,,---,0.00,0.00,VWS V14.01,2015-04-18 07:34:00,
2015-04-18 02:39:00,55.0,51.8,29.87,ENE,75,0.0,0.0,89,0.00,,---,0.00,0.00,VWS V14.01,2015-04-18 07:39:00,
2015-04-18 02:44:00,54.9,51.7,29.87,ENE,75,0.0,0.0,89,0.00,,---,0.00,0.00,VWS V14.01,2015-04-18 07:44:00,
2015-04-18 02:49:00,54.8,51.6,29.86,ENE,75,0.0,0.0,89,0.00,,---,0.00,0.00,VWS V14.01,2015-04-18 07:49:00,
2015-04-18 02:54:00,54.7,51.5,29.86,ENE,75,0.0,0.0,89,0.00,,---,0.00,0.00,VWS V14.01,2015-04-18 07:54:00,
2015-04-18 02:59:00,54.7,51.5,29.86,ENE,75,0.0,0.0,89,0.00,,---,0.00,0.00,VWS V14.01,2015-04-18 07:59:00,
2015-04-18 03:04:00,54.7,51.5,29.87,ENE,75,0.0,0.0,89,0.00,,---,0.00,0.00,VWS V14.01,2015-04-18 08:04:00,
2015-04-18 03:09:00,54.7,51.5,29.87,ENE,75,0.0,0.0,89,0.00,,---,0.00,0.00,VWS V14.01,2015-04-18 08:09:00,
2015-04-18 03:14:00,54.7,51.5,29.87,ENE,75,0.0,0.0,89,0.00,,---,0.00,0.00,VWS V14.01,2015-04-18 08:14:00,
2015-04-18 03:19:00,54.7,51.5,29.87,ENE,75,0.0,0.0,89,0.00,,---,0.00,0.00,VWS V14.01,2015-04-18 08:19:00,
2015-04-18 03:24:00,54.6,51.4,29.86,ENE,75,0.0,0.0,89,0.00,,---,0.00,0.00,VWS V14.01,2015-04-18 08:24:00,
2015-04-18 03:29:00,54.5,51.3,29.86,ENE,75,0.0,0.0,89,0.00,,---,0.00,0.00,VWS V14.01,2015-04-18 08:29:00,
2015-04-18 03:34:00,54.4,51.2,29.86,ENE,75,0.0,0.0,89,0.00,,---,0.00,0.00,VWS V14.01,2015-04-18 08:34:00,
2015-04-18 03:39:00,54.4,51.2,29.86,ENE,75,0.0,0.0,89,0.00,,---,0.00,0.00,VWS V14.01,2015-04-18 08:39:00,
2015-04-18 03:44:00,54.2,51.0,29.86,ENE,75,0.0,0.0,89,0.00,,---,0.00,0.00,VWS V14.01,2015-04-18 08:44:00,
2015-04-18 03:49:00,54.1,50.9,29.86,ENE,75,0.0,0.0,89,0.00,,---,0.00,0.00,VWS V14.01,2015-04-18 08:49:00,
2015-04-18 03:54:00,54.0,50.8,29.86,ENE,75,0.0,0.0,89,0.01,,---,0.01,0.00,VWS V14.01,2015-04-18 08:54:00,
2015-04-18 03:59:00,53.8,50.6,29.86,ENE,75,0.0,0.0,89,0.01,,---,0.01,0.00,VWS V14.01,2015-04-18 08:59:00,
2015-04-18 04:04:00,53.7,50.5,29.86,ENE,75,0.0,0.0,89,0.01,,---,0.01,0.00,VWS V14.01,2015-04-18 09:04:00,
2015-04-18 04:09:00,53.7,50.5,29.86,ENE,75,0.0,0.0,89,0.01,,---,0.01,0.00,VWS V14.01,2015-04-18 09:09:00,
2015-04-18 04:14:00,53.7,50.5,29.86,ENE,75,0.0,0.0,89,0.01,,---,0.01,0.00,VWS V14.01,2015-04-18 09:14:00,
2015-04-18 04:19:00,53.6,50.4,29.86,ENE,75,0.0,0.0,89,0.01,,---,0.01,0.00,VWS V14.01,2015-04-18 09:19:00,
2015-04-18 04:24:00,53.6,50.7,29.86,ENE,75,0.0,0.0,90,0.01,,---,0.01,0.00,VWS V14.01,2015-04-18 09:24:00,
2015-04-18 04:29:00,53.5,50.6,29.86,ENE,75,0.0,0.0,90,0.01,,---,0.01,0.00,VWS V14.01,2015-04-18 09:29:00,
2015-04-18 04:34:00,53.5,50.6,29.86,ENE,75,0.0,0.0,90,0.01,,---,0.01,0.00,VWS V14.01,2015-04-18 09:34:00,
2015-04-18 04:39:00,53.5,50.6,29.86,ENE,75,0.0,0.0,90,0.01,,---,0.01,0.00,VWS V14.01,2015-04-18 09:39:00,
2015-04-18 04:49:00,53.5,50.6,29.86,ENE,75,0.0,0.0,90,0.01,,---,0.01,0.00,VWS V14.01,2015-04-18 09:49:00,
2015-04-18 04:54:00,53.7,50.8,29.86,ENE,75,0.0,0.0,90,0.01,,---,0.01,0.00,VWS V14.01,2015-04-18 09:54:00,
2015-04-18 04:59:00,53.8,50.9,29.86,ENE,75,0.0,0.0,90,0.00,,---,0.01,0.00,VWS V14.01,2015-04-18 09:59:00,
2015-04-18 05:04:00,54.2,51.3,29.86,ENE,75,0.0,0.0,90,0.00,,---,0.01,0.00,VWS V14.01,2015-04-18 10:04:00,
2015-04-18 05:09:00,54.6,51.7,29.86,ENE,75,0.0,0.0,90,0.00,,---,0.01,0.00,VWS V14.01,2015-04-18 10:09:00,
2015-04-18 05:14:00,54.8,51.9,29.86,ENE,75,0.0,0.0,90,0.00,,---,0.01,0.00,VWS V14.01,2015-04-18 10:14:00,
2015-04-18 05:19:00,54.9,52.0,29.86,ENE,75,0.0,0.0,90,0.00,,---,0.01,0.00,VWS V14.01,2015-04-18 10:19:00,
2015-04-18 05:24:00,55.1,52.2,29.85,ENE,75,0.0,0.0,90,0.00,,---,0.01,0.00,VWS V14.01,2015-04-18 10:24:00,
2015-04-18 05:29:00,55.3,52.4,29.85,ENE,75,0.0,0.0,90,0.00,,---,0.01,0.00,VWS V14.01,2015-04-18 10:29:00,
2015-04-18 05:34:00,55.5,52.6,29.85,ENE,75,0.0,0.0,90,0.00,,---,0.01,0.00,VWS V14.01,2015-04-18 10:34:00,
2015-04-18 05:39:00,55.6,52.7,29.85,ENE,75,0.0,0.0,90,0.00,,---,0.01,0.00,VWS V14.01,2015-04-18 10:39:00,
2015-04-18 05:44:00,55.7,52.8,29.85,ENE,75,0.0,0.0,90,0.00,,---,0.01,0.00,VWS V14.01,2015-04-18 10:44:00,
2015-04-18 05:49:00,55.9,53.0,29.85,ENE,75,0.0,0.0,90,0.00,,---,0.01,0.00,VWS V14.01,2015-04-18 10:49:00,
2015-04-18 05:54:00,56.3,53.4,29.85,ENE,75,0.0,0.0,90,0.00,,---,0.01,0.00,VWS V14.01,2015-04-18 10:54:00,
2015-04-18 05:59:00,56.6,53.7,29.85,ENE,75,0.0,0.0,90,0.00,,---,0.01,0.00,VWS V14.01,2015-04-18 10:59:00,
2015-04-18 06:04:00,56.8,54.2,29.85,ENE,75,0.0,0.0,91,0.00,,---,0.01,0.00,VWS V14.01,2015-04-18 11:04:00,
2015-04-18 06:09:00,56.8,53.9,29.85,ENE,75,0.0,0.0,90,0.00,,---,0.01,0.00,VWS V14.01,2015-04-18 11:09:00,
2015-04-18 06:14:00,56.9,54.0,29.85,ENE,75,0.0,0.0,90,0.00,,---,0.01,0.00,VWS V14.01,2015-04-18 11:14:00,
2015-04-18 06:19:00,57.0,54.1,29.85,ENE,75,0.0,0.0,90,0.00,,---,0.01,0.00,VWS V14.01,2015-04-18 11:19:00,
2015-04-18 06:24:00,57.1,54.5,29.85,ENE,75,0.0,0.0,91,0.00,,---,0.01,0.00,VWS V14.01,2015-04-18 11:24:00,
2015-04-18 06:29:00,57.1,54.2,29.85,ENE,75,0.0,0.0,90,0.00,,---,0.01,0.00,VWS V14.01,2015-04-18 11:29:00,
2015-04-18 06:34:00,57.2,54.6,29.86,ENE,75,0.0,0.0,91,0.00,,---,0.01,0.00,VWS V14.01,2015-04-18 11:34:00,
2015-04-18 06:39:00,57.4,54.8,29.86,ENE,75,0.0,0.0,91,0.00,,---,0.01,0.00,VWS V14.01,2015-04-18 11:39:00,
2015-04-18 06:44:00,57.5,54.9,29.85,ENE,75,0.0,0.0,91,0.00,,---,0.01,0.00,VWS V14.01,2015-04-18 11:44:00,
2015-04-18 06:49:00,57.7,55.1,29.85,ENE,75,0.0,0.0,91,0.00,,---,0.01,0.00,VWS V14.01,2015-04-18 11:49:00,
2015-04-18 06:54:00,57.8,54.9,29.85,ENE,75,0.0,0.0,90,0.00,,---,0.01,0.00,VWS V14.01,2015-04-18 11:54:00,
2015-04-18 06:59:00,57.9,55.3,29.85,ENE,75,0.0,0.0,91,0.00,,---,0.01,0.00,VWS V14.01,2015-04-18 11:59:00,
2015-04-18 07:04:00,58.0,55.4,29.85,ENE,75,0.0,0.0,91,0.00,,---,0.01,0.00,VWS V14.01,2015-04-18 12:04:00,
2015-04-18 07:09:00,58.0,55.4,29.85,ENE,75,0.0,0.0,91,0.00,,---,0.01,0.00,VWS V14.01,2015-04-18 12:09:00,
2015-04-18 07:14:00,58.1,55.5,29.85,ENE,75,0.0,0.0,91,0.00,,---,0.01,0.00,VWS V14.01,2015-04-18 12:14:00,
2015-04-18 07:19:00,58.2,55.6,29.85,ENE,75,0.0,0.0,91,0.00,,---,0.01,5.00,VWS V14.01,2015-04-18 12:19:00,
2015-04-18 07:24:00,58.2,55.6,29.85,ENE,75,0.0,0.0,91,0.00,,---,0.01,5.00,VWS V14.01,2015-04-18 12:24:00,
2015-04-18 07:29:00,58.2,55.6,29.85,ENE,77,0.0,0.0,91,0.00,,---,0.01,5.00,VWS V14.01,2015-04-18 12:29:00,
2015-04-18 07:34:00,58.2,55.6,29.85,ENE,77,0.0,0.0,91,0.00,,---,0.01,0.00,VWS V14.01,2015-04-18 12:34:00,
2015-04-18 07:39:00,58.2,55.6,29.85,ENE,77,0.0,0.0,91,0.00,,---,0.01,0.00,VWS V14.01,2015-04-18 12:39:00,
2015-04-18 07:44:00,58.2,55.6,29.85,ENE,77,0.0,0.0,91,0.00,,---,0.01,7.00,VWS V14.01,2015-04-18 12:44:00,
2015-04-18 07:49:00,58.2,55.6,29.85,ENE,77,0.0,0.0,91,0.00,,---,0.01,11.00,VWS V14.01,2015-04-18 12:49:00,
2015-04-18 07:54:00,58.2,55.6,29.85,ENE,77,0.0,0.0,91,0.00,,---,0.01,18.00,VWS V14.01,2015-04-18 12:54:00,
2015-04-18 07:59:00,58.3,55.7,29.85,ENE,77,0.0,0.0,91,0.00,,---,0.01,32.00,VWS V14.01,2015-04-18 12:59:00,
2015-04-18 08:04:00,58.4,55.8,29.85,ENE,77,0.0,0.0,91,0.00,,---,0.01,37.00,VWS V14.01,2015-04-18 13:04:00,
2015-04-18 08:09:00,58.6,56.0,29.85,ENE,77,0.0,0.0,91,0.00,,---,0.01,56.00,VWS V14.01,2015-04-18 13:09:00,
2015-04-18 08:14:00,58.8,56.2,29.85,East,92,0.0,0.0,91,0.00,,---,0.01,60.00,VWS V14.01,2015-04-18 13:14:00,
2015-04-18 08:19:00,59.1,56.5,29.85,East,94,0.0,0.0,91,0.00,,---,0.01,76.00,VWS V14.01,2015-04-18 13:19:00,
2015-04-18 08:24:00,59.4,56.8,29.85,East,96,0.0,1.0,91,0.00,,---,0.01,54.00,VWS V14.01,2015-04-18 13:24:00,
2015-04-18 08:29:00,59.6,57.0,29.84,South,173,3.0,3.0,91,0.00,,---,0.01,77.00,VWS V14.01,2015-04-18 13:29:00,
2015-04-18 08:34:00,59.8,57.2,29.84,South,174,0.0,1.0,91,0.00,,---,0.01,100.00,VWS V14.01,2015-04-18 13:34:00,
2015-04-18 08:39:00,59.9,57.3,29.84,South,173,0.0,0.0,91,0.00,,---,0.01,90.00,VWS V14.01,2015-04-18 13:39:00,
2015-04-18 08:44:00,60.0,57.4,29.84,South,179,0.0,0.0,91,0.00,,---,0.01,155.00,VWS V14.01,2015-04-18 13:44:00,
2015-04-18 08:49:00,60.3,57.7,29.83,South,178,0.0,0.0,91,0.00,,---,0.01,141.00,VWS V14.01,2015-04-18 13:49:00,
2015-04-18 08:54:00,60.4,57.8,29.84,South,184,0.0,0.0,91,0.00,,---,0.01,167.00,VWS V14.01,2015-04-18 13:54:00,
2015-04-18 08:59:00,60.5,57.9,29.83,SSW,213,0.0,0.0,91,0.00,,---,0.01,174.00,VWS V14.01,2015-04-18 13:59:00,
2015-04-18 09:04:00,60.7,58.1,29.83,South,173,0.0,6.0,91,0.00,,---,0.01,207.00,VWS V14.01,2015-04-18 14:04:00,
2015-04-18 09:09:00,60.9,58.3,29.83,SSW,201,6.0,7.0,91,0.00,,---,0.01,318.00,VWS V14.01,2015-04-18 14:09:00,
2015-04-18 09:14:00,61.0,58.4,29.83,SW,220,6.0,6.0,91,0.00,,---,0.01,274.00,VWS V14.01,2015-04-18 14:14:00,
2015-04-18 09:19:00,61.3,58.7,29.83,SW,215,6.0,11.0,91,0.00,,---,0.01,213.00,VWS V14.01,2015-04-18 14:19:00,
2015-04-18 09:24:00,61.6,59.0,29.83,SSW,200,1.0,6.0,91,0.00,,---,0.01,257.00,VWS V14.01,2015-04-18 14:24:00,
2015-04-18 09:29:00,61.9,59.2,29.82,South,179,6.0,7.0,91,0.00,,---,0.01,229.00,VWS V14.01,2015-04-18 14:29:00,
2015-04-18 09:34:00,62.0,59.0,29.82,SW,221,6.0,12.0,90,0.00,,---,0.01,209.00,VWS V14.01,2015-04-18 14:34:00,
2015-04-18 09:39:00,62.2,59.2,29.83,SSW,196,3.0,7.0,90,0.00,,---,0.01,172.00,VWS V14.01,2015-04-18 14:39:00,
2015-04-18 09:44:00,62.2,59.2,29.83,SSW,199,6.0,11.0,90,0.00,,---,0.01,192.00,VWS V14.01,2015-04-18 14:44:00,
2015-04-18 09:49:00,62.3,59.3,29.83,South,178,6.0,12.0,90,0.00,,---,0.01,200.00,VWS V14.01,2015-04-18 14:49:00,
2015-04-18 09:54:00,62.3,59.0,29.83,SSW,211,0.0,11.0,89,0.00,,---,0.01,197.00,VWS V14.01,2015-04-18 14:54:00,
2015-04-18 09:59:00,62.3,59.0,29.83,SSW,210,10.0,10.0,89,0.00,,---,0.01,272.00,VWS V14.01,2015-04-18 14:59:00,
2015-04-18 10:04:00,62.5,59.2,29.83,South,181,0.0,0.0,89,0.00,,---,0.01,264.00,VWS V14.01,2015-04-18 15:04:00,
2015-04-18 10:09:00,62.7,59.4,29.83,South,179,0.0,3.0,89,0.00,,---,0.01,313.00,VWS V14.01,2015-04-18 15:09:00,
2015-04-18 10:14:00,63.1,59.8,29.83,South,184,4.0,6.0,89,0.00,,---,0.01,294.00,VWS V14.01,2015-04-18 15:14:00,
2015-04-18 10:19:00,63.3,59.7,29.83,SW,216,0.0,3.0,88,0.00,,---,0.01,285.00,VWS V14.01,2015-04-18 15:19:00,
2015-04-18 10:24:00,63.5,59.9,29.83,South,182,8.0,12.0,88,0.00,,---,0.01,844.00,VWS V14.01,2015-04-18 15:24:00,
2015-04-18 10:29:00,64.1,60.2,29.83,South,181,0.0,0.0,87,0.00,,---,0.01,819.00,VWS V14.01,2015-04-18 15:29:00,
2015-04-18 10:34:00,64.8,60.8,29.83,SW,215,7.0,13.0,87,0.00,,---,0.01,281.00,VWS V14.01,2015-04-18 15:34:00,
2015-04-18 10:39:00,65.4,61.1,29.83,SSW,205,6.0,7.0,86,0.00,,---,0.01,956.00,VWS V14.01,2015-04-18 15:39:00,
2015-04-18 10:44:00,66.1,61.5,29.83,South,188,1.0,4.0,85,0.00,,---,0.01,343.00,VWS V14.01,2015-04-18 15:44:00,
2015-04-18 10:49:00,66.1,61.1,29.83,South,177,4.0,5.0,84,0.00,,---,0.01,306.00,VWS V14.01,2015-04-18 15:49:00,
2015-04-18 10:54:00,65.8,60.5,29.83,SW,230,9.0,11.0,83,0.00,,---,0.01,353.00,VWS V14.01,2015-04-18 15:54:00,
2015-04-18 10:59:00,65.6,60.3,29.83,SSW,212,3.0,6.0,83,0.00,,---,0.01,288.00,VWS V14.01,2015-04-18 15:59:00,
2015-04-18 11:04:00,65.5,60.5,29.83,SW,229,7.0,11.0,84,0.00,,---,0.01,338.00,VWS V14.01,2015-04-18 16:04:00,
2015-04-18 11:09:00,65.3,60.0,29.83,SW,216,12.0,12.0,83,0.00,,---,0.01,429.00,VWS V14.01,2015-04-18 16:09:00,
2015-04-18 11:19:00,65.4,60.1,29.83,SSW,202,0.0,5.0,83,0.00,,---,0.01,346.00,VWS V14.01,2015-04-18 16:19:00,
2015-04-18 11:24:00,65.3,60.0,29.83,SSW,211,4.0,6.0,83,0.00,,---,0.01,497.00,VWS V14.01,2015-04-18 16:24:00,
2015-04-18 11:29:00,65.6,60.3,29.83,SW,223,6.0,6.0,83,0.00,,---,0.01,550.00,VWS V14.01,2015-04-18 16:29:00,
2015-04-18 11:34:00,65.9,60.6,29.83,SW,234,10.0,12.0,83,0.00,,---,0.01,320.00,VWS V14.01,2015-04-18 16:34:00,
2015-04-18 11:39:00,65.7,60.4,29.83,WSW,255,0.0,0.0,83,0.00,,---,0.01,313.00,VWS V14.01,2015-04-18 16:39:00,
2015-04-18 11:44:00,65.6,60.3,29.83,SW,224,0.0,5.0,83,0.00,,---,0.01,327.00,VWS V14.01,2015-04-18 16:44:00,
2015-04-18 11:49:00,65.7,60.1,29.83,SW,232,8.0,10.0,82,0.00,,---,0.01,353.00,VWS V14.01,2015-04-18 16:49:00,
2015-04-18 11:54:00,65.8,60.2,29.82,SW,222,0.0,6.0,82,0.00,,---,0.01,485.00,VWS V14.01,2015-04-18 16:54:00,
2015-04-18 11:59:00,66.3,60.7,29.82,SSW,213,3.0,3.0,82,0.00,,---,0.01,485.00,VWS V14.01,2015-04-18 16:59:00,
2015-04-18 12:04:00,66.7,60.7,29.82,South,170,0.0,5.0,81,0.00,,---,0.01,446.00,VWS V14.01,2015-04-18 17:04:00,
2015-04-18 12:09:00,67.4,61.4,29.82,South,183,8.0,9.0,81,0.00,,---,0.01,661.00,VWS V14.01,2015-04-18 17:09:00,
2015-04-18 12:14:00,68.1,61.7,29.81,South,180,0.0,4.0,80,0.00,,---,0.01,512.00,VWS V14.01,2015-04-18 17:14:00,
2015-04-18 12:19:00,68.5,61.7,29.81,WSW,241,0.0,0.0,79,0.00,,---,0.01,555.00,VWS V14.01,2015-04-18 17:19:00,
2015-04-18 12:24:00,68.5,61.7,29.80,SSW,196,0.0,0.0,79,0.00,,---,0.01,462.00,VWS V14.01,2015-04-18 17:24:00,
2015-04-18 12:29:00,68.4,61.6,29.80,SSW,201,6.0,6.0,79,0.00,,---,0.01,501.00,VWS V14.01,2015-04-18 17:29:00,
2015-04-18 12:34:00,68.5,61.4,29.80,SW,227,0.0,0.0,78,0.00,,---,0.01,471.00,VWS V14.01,2015-04-18 17:34:00,
2015-04-18 12:39:00,68.6,61.5,29.80,SSW,205,0.0,0.0,78,0.00,,---,0.01,473.00,VWS V14.01,2015-04-18 17:39:00,
2015-04-18 12:44:00,69.0,61.9,29.79,SW,227,0.0,0.0,78,0.00,,---,0.01,548.00,VWS V14.01,2015-04-18 17:44:00,
2015-04-18 12:49:00,69.3,62.2,29.79,SW,229,0.0,0.0,78,0.00,,---,0.01,459.00,VWS V14.01,2015-04-18 17:49:00,
2015-04-18 12:54:00,69.6,62.1,29.79,SW,215,1.0,3.0,77,0.00,,---,0.01,468.00,VWS V14.01,2015-04-18 17:54:00,
2015-04-18 12:59:00,70.6,62.7,29.78,SSE,154,7.0,7.0,76,0.00,,---,0.01,642.00,VWS V14.01,2015-04-18 17:59:00,
2015-04-18 13:04:00,71.6,63.3,29.78,South,180,4.0,4.0,75,0.00,,---,0.01,1227.00,VWS V14.01,2015-04-18 18:04:00,
2015-04-18 13:09:00,72.2,63.5,29.78,South,178,2.0,3.0,74,0.00,,---,0.01,1157.00,VWS V14.01,2015-04-18 18:09:00,
2015-04-18 13:14:00,72.7,63.5,29.78,SSW,203,4.0,9.0,73,0.00,,---,0.01,1041.00,VWS V14.01,2015-04-18 18:14:00,
2015-04-18 13:19:00,73.0,63.8,29.78,SE,145,0.0,0.0,73,0.00,,---,0.01,1076.00,VWS V14.01,2015-04-18 18:19:00,
2015-04-18 13:24:00,73.5,63.9,29.78,South,190,6.0,10.0,72,0.00,,---,0.01,1171.00,VWS V14.01,2015-04-18 18:24:00,
2015-04-18 13:29:00,74.0,63.6,29.77,SSE,164,3.0,3.0,70,0.00,,---,0.01,304.00,VWS V14.01,2015-04-18 18:29:00,
2015-04-18 13:34:00,73.9,63.9,29.77,SSE,150,0.0,1.0,71,0.00,,---,0.01,1241.00,VWS V14.01,2015-04-18 18:34:00,
2015-04-18 13:39:00,73.9,63.9,29.77,South,170,1.0,2.0,71,0.00,,---,0.01,462.00,VWS V14.01,2015-04-18 18:39:00,
2015-04-18 13:44:00,74.1,63.7,29.76,SSE,150,0.0,1.0,70,0.00,,---,0.01,462.00,VWS V14.01,2015-04-18 18:44:00,
2015-04-18 13:49:00,74.6,63.8,29.76,SSE,168,4.0,9.0,69,0.00,,---,0.01,1025.00,VWS V14.01,2015-04-18 18:49:00,
2015-04-18 13:54:00,74.9,63.6,29.76,South,180,2.0,2.0,68,0.00,,---,0.01,315.00,VWS V14.01,2015-04-18 18:54:00,
2015-04-18 13:59:00,74.9,63.6,29.76,SE,140,5.0,6.0,68,0.00,,---,0.01,1051.00,VWS V14.01,2015-04-18 18:59:00,
2015-04-18 14:04:00,75.2,63.9,29.75,SSW,206,0.0,3.0,68,0.00,,---,0.01,1125.00,VWS V14.01,2015-04-18 19:04:00,
2015-04-18 14:09:00,75.5,64.2,29.75,ESE,117,4.0,5.0,68,0.00,,---,0.01,997.00,VWS V14.01,2015-04-18 19:09:00,
2015-04-18 14:14:00,75.6,63.9,29.75,SE,129,0.0,0.0,67,0.00,,---,0.01,1020.00,VWS V14.01,2015-04-18 19:14:00,
2015-04-18 14:19:00,75.6,63.5,29.75,SE,130,0.0,0.0,66,0.00,,---,0.01,965.00,VWS V14.01,2015-04-18 19:19:00,
2015-04-18 14:24:00,75.8,63.6,29.74,SSE,167,0.0,0.0,66,0.00,,---,0.01,1034.00,VWS V14.01,2015-04-18 19:24:00,
2015-04-18 14:29:00,76.2,64.4,29.74,SSE,158,3.0,3.0,67,0.00,,---,0.01,951.00,VWS V14.01,2015-04-18 19:29:00,
2015-04-18 14:34:00,76.0,63.8,29.74,SSE,163,0.0,0.0,66,0.00,,---,0.01,935.00,VWS V14.01,2015-04-18 19:34:00,
2015-04-18 14:44:00,76.6,64.0,29.73,ESE,117,0.0,0.0,65,0.00,,---,0.01,939.00,VWS V14.01,2015-04-18 19:44:00,
2015-04-18 14:49:00,76.8,63.7,29.73,SSE,153,3.0,3.0,64,0.00,,---,0.01,930.00,VWS V14.01,2015-04-18 19:49:00,
2015-04-18 14:54:00,76.8,63.7,29.73,SE,145,3.0,3.0,64,0.00,,---,0.01,921.00,VWS V14.01,2015-04-18 19:54:00,
2015-04-18 14:59:00,76.8,63.3,29.73,SSE,165,5.0,6.0,63,0.00,,---,0.01,926.00,VWS V14.01,2015-04-18 19:59:00,
2015-04-18 15:04:00,77.0,63.0,29.72,South,174,0.0,0.0,62,0.00,,---,0.01,907.00,VWS V14.01,2015-04-18 20:04:00,
2015-04-18 15:09:00,77.5,63.0,29.72,SSE,147,3.0,3.0,61,0.00,,---,0.01,902.00,VWS V14.01,2015-04-18 20:09:00,
2015-04-18 15:14:00,78.1,63.6,29.71,SE,141,1.0,6.0,61,0.00,,---,0.01,898.00,VWS V14.01,2015-04-18 20:14:00,
2015-04-18 15:19:00,78.4,62.9,29.71,SE,146,0.0,3.0,59,0.00,,---,0.01,928.00,VWS V14.01,2015-04-18 20:19:00,
2015-04-18 15:24:00,78.9,63.8,29.71,SE,141,3.0,3.0,60,0.00,,---,0.01,882.00,VWS V14.01,2015-04-18 20:24:00,
2015-04-18 15:29:00,78.5,62.5,29.70,SSE,166,0.0,0.0,58,0.00,,---,0.01,865.00,VWS V14.01,2015-04-18 20:29:00,
2015-04-18 15:34:00,78.6,62.6,29.70,SSE,157,0.0,0.0,58,0.00,,---,0.01,847.00,VWS V14.01,2015-04-18 20:34:00,
2015-04-18 15:39:00,79.0,63.5,29.69,East,97,0.0,1.0,59,0.00,,---,0.01,840.00,VWS V14.01,2015-04-18 20:39:00,
2015-04-18 15:44:00,79.4,63.8,29.69,ESE,107,0.0,0.0,59,0.00,,---,0.01,830.00,VWS V14.01,2015-04-18 20:44:00,
2015-04-18 15:49:00,79.6,62.5,29.68,SE,137,0.0,1.0,56,0.00,,---,0.01,821.00,VWS V14.01,2015-04-18 20:49:00,
2015-04-18 15:54:00,79.7,62.6,29.67,SE,140,0.0,0.0,56,0.00,,---,0.01,810.00,VWS V14.01,2015-04-18 20:54:00,
2015-04-18 15:59:00,79.7,62.6,29.67,ESE,111,0.0,0.0,56,0.00,,---,0.01,823.00,VWS V14.01,2015-04-18 20:59:00,
2015-04-18 16:04:00,79.4,61.8,29.67,SSE,157,0.0,0.0,55,0.00,,---,0.01,784.00,VWS V14.01,2015-04-18 21:04:00,
2015-04-18 16:09:00,79.4,60.3,29.66,South,171,1.0,3.0,52,0.00,,---,0.01,768.00,VWS V14.01,2015-04-18 21:09:00,
2015-04-18 16:14:00,79.6,58.8,29.66,SSE,157,1.0,1.0,49,0.00,,---,0.01,756.00,VWS V14.01,2015-04-18 21:14:00,
2015-04-18 16:19:00,80.1,59.2,29.66,SSE,158,7.0,9.0,49,0.00,,---,0.01,744.00,VWS V14.01,2015-04-18 21:19:00,
2015-04-18 16:24:00,80.4,58.9,29.65,SW,217,0.0,2.0,48,0.00,,---,0.01,726.00,VWS V14.01,2015-04-18 21:24:00,
2015-04-18 16:29:00,80.7,58.6,29.64,SSW,200,0.0,0.0,47,0.00,,---,0.01,715.00,VWS V14.01,2015-04-18 21:29:00,
2015-04-18 16:34:00,80.7,59.8,29.64,SSE,163,0.0,2.0,49,0.00,,---,0.01,700.00,VWS V14.01,2015-04-18 21:34:00,
2015-04-18 16:38:00,80.8,58.7,29.64,SSE,157,1.0,1.0,47,0.00,,---,0.01,686.00,VWS V14.01,2015-04-18 21:38:00,
2015-04-18 16:43:00,80.7,59.2,29.64,SSE,151,3.0,5.0,48,0.00,,---,0.01,675.00,VWS V14.01,2015-04-18 21:43:00,
2015-04-18 16:48:00,80.9,60.5,29.63,ESE,105,0.0,1.0,50,0.00,,---,0.01,663.00,VWS V14.01,2015-04-18 21:48:00,
2015-04-18 16:53:00,81.1,60.2,29.63,SE,133,0.0,0.0,49,0.00,,---,0.01,668.00,VWS V14.01,2015-04-18 21:53:00,
2015-04-18 16:58:00,81.1,59.6,29.62,East,98,2.0,5.0,48,0.00,,---,0.01,636.00,VWS V14.01,2015-04-18 21:58:00,
2015-04-18 17:03:00,81.1,59.0,29.62,SSE,150,4.0,5.0,47,0.00,,---,0.01,624.00,VWS V14.01,2015-04-18 22:03:00,
2015-04-18 17:08:00,81.0,58.9,29.62,ESE,113,3.0,4.0,47,0.00,,---,0.01,610.00,VWS V14.01,2015-04-18 22:08:00,
2015-04-18 17:13:00,80.5,59.6,29.62,East,88,3.0,5.0,49,0.00,,---,0.01,589.00,VWS V14.01,2015-04-18 22:13:00,
2015-04-18 17:18:00,80.7,59.8,29.62,SSE,159,0.0,2.0,49,0.00,,---,0.01,580.00,VWS V14.01,2015-04-18 22:18:00,
2015-04-18 17:23:00,81.2,59.7,29.62,SSE,153,0.0,0.0,48,0.00,,---,0.01,582.00,VWS V14.01,2015-04-18 22:23:00,
2015-04-18 17:28:00,81.5,60.5,29.62,ESE,117,0.0,0.0,49,0.00,,---,0.01,592.00,VWS V14.01,2015-04-18 22:28:00,
2015-04-18 17:33:00,81.5,59.3,29.62,ESE,111,0.0,0.0,47,0.00,,---,0.01,559.00,VWS V14.01,2015-04-18 22:33:00,
2015-04-18 17:38:00,81.1,62.9,29.62,ESE,114,13.0,17.0,54,0.00,,---,0.01,531.00,VWS V14.01,2015-04-18 22:38:00,
2015-04-18 17:43:00,79.6,63.5,29.62,East,92,14.0,14.0,58,0.00,,---,0.01,612.00,VWS V14.01,2015-04-18 22:43:00,
2015-04-18 17:48:00,78.8,63.8,29.62,SE,128,14.0,14.0,60,0.00,,---,0.01,258.00,VWS V14.01,2015-04-18 22:48:00,
2015-04-18 17:53:00,76.2,61.8,29.63,East,99,13.0,20.0,61,0.00,,---,0.01,171.00,VWS V14.01,2015-04-18 22:53:00,
2015-04-18 17:58:00,74.2,60.4,29.63,ESE,119,12.0,13.0,62,0.00,,---,0.01,475.00,VWS V14.01,2015-04-18 22:58:00,
2015-04-18 18:03:00,73.4,59.6,29.64,SE,132,7.0,19.0,62,0.00,,---,0.01,97.00,VWS V14.01,2015-04-18 23:03:00,
2015-04-18 18:08:00,72.9,60.0,29.64,ESE,103,5.0,10.0,64,0.00,,---,0.01,91.00,VWS V14.01,2015-04-18 23:08:00,
2015-04-18 18:13:00,72.4,60.0,29.64,SE,128,4.0,10.0,65,0.00,,---,0.01,118.00,VWS V14.01,2015-04-18 23:13:00,
2015-04-18 18:18:00,72.0,60.5,29.65,SE,129,7.0,16.0,67,0.00,,---,0.01,100.00,VWS V14.01,2015-04-18 23:18:00,
2015-04-18 18:23:00,71.3,59.4,29.65,SE,132,0.0,5.0,66,0.00,,---,0.01,86.00,VWS V14.01,2015-04-18 23:23:00,
2015-04-18 18:28:00,70.9,58.6,29.65,ESE,111,8.0,13.0,65,0.00,,---,0.01,114.00,VWS V14.01,2015-04-18 23:28:00,
2015-04-18 18:33:00,70.6,55.6,29.65,ESE,112,13.0,17.0,59,0.00,,---,0.01,359.00,VWS V14.01,2015-04-18 23:33:00,
2015-04-18 18:38:00,70.5,55.5,29.65,ESE,109,6.0,12.0,59,0.00,,---,0.01,77.00,VWS V14.01,2015-04-18 23:38:00,
2015-04-18 18:43:00,70.2,54.3,29.64,ESE,111,4.0,6.0,57,0.00,,---,0.01,134.00,VWS V14.01,2015-04-18 23:43:00,
2015-04-18 18:48:00,70.1,54.2,29.64,ESE,112,4.0,7.0,57,0.00,,---,0.01,241.00,VWS V14.01,2015-04-18 23:48:00,
2015-04-18 18:53:00,70.3,54.4,29.64,ESE,110,4.0,7.0,57,0.00,,---,0.01,223.00,VWS V14.01,2015-04-18 23:53:00,
2015-04-18 18:58:00,70.5,54.5,29.63,ESE,121,3.0,5.0,57,0.00,,---,0.01,204.00,VWS V14.01,2015-04-18 23:58:00,
2015-04-18 19:03:00,70.7,54.2,29.63,ESE,111,3.0,10.0,56,0.00,,---,0.01,181.00,VWS V14.01,2015-04-19 00:03:00,
2015-04-18 19:08:00,70.8,54.3,29.63,ESE,112,0.0,3.0,56,0.00,,---,0.01,156.00,VWS V14.01,2015-04-19 00:08:00,
2015-04-18 19:13:00,70.9,54.9,29.63,SE,146,0.0,0.0,57,0.00,,---,0.01,44.00,VWS V14.01,2015-04-19 00:13:00,
2015-04-18 19:18:00,70.8,54.8,29.63,ESE,102,0.0,0.0,57,0.00,,---,0.01,102.00,VWS V14.01,2015-04-19 00:18:00,
2015-04-18 19:23:00,70.6,54.6,29.62,East,100,6.0,9.0,57,0.00,,---,0.01,56.00,VWS V14.01,2015-04-19 00:23:00,
2015-04-18 19:28:00,70.4,54.9,29.62,ESE,107,5.0,6.0,58,0.00,,---,0.01,77.00,VWS V14.01,2015-04-19 00:28:00,
2015-04-18 19:33:00,70.1,54.2,29.62,East,97,7.0,16.0,57,0.00,,---,0.01,65.00,VWS V14.01,2015-04-19 00:33:00,
2015-04-18 19:38:00,69.8,53.4,29.62,East,98,11.0,14.0,56,0.00,,---,0.01,47.00,VWS V14.01,2015-04-19 00:38:00,
2015-04-18 19:43:00,69.7,53.8,29.62,East,95,7.0,10.0,57,0.00,,---,0.01,35.00,VWS V14.01,2015-04-19 00:43:00,
2015-04-18 19:48:00,69.5,54.1,29.62,East,101,5.0,9.0,58,0.00,,---,0.01,26.00,VWS V14.01,2015-04-19 00:48:00,
2015-04-18 19:53:00,69.1,54.2,29.62,ESE,107,5.0,6.0,59,0.00,,---,0.01,19.00,VWS V14.01,2015-04-19 00:53:00,
2015-04-18 19:58:00,68.8,54.4,29.62,ESE,105,5.0,8.0,60,0.00,,---,0.01,14.00,VWS V14.01,2015-04-19 00:58:00,
2015-04-18 20:03:00,68.3,53.9,29.63,ESE,110,9.0,13.0,60,0.00,,---,0.01,11.00,VWS V14.01,2015-04-19 01:03:00,
2015-04-18 20:08:00,67.9,54.0,29.63,ESE,107,6.0,7.0,61,0.00,,---,0.01,7.00,VWS V14.01,2015-04-19 01:08:00,
2015-04-18 20:13:00,67.6,54.1,29.63,ESE,103,4.0,9.0,62,0.00,,---,0.01,5.00,VWS V14.01,2015-04-19 01:13:00,
2015-04-18 20:18:00,67.2,54.2,29.63,East,98,1.0,4.0,63,0.00,,---,0.01,0.00,VWS V14.01,2015-04-19 01:18:00,
2015-04-18 20:23:00,66.9,54.3,29.63,ESE,113,4.0,5.0,64,0.00,,---,0.01,0.00,VWS V14.01,2015-04-19 01:23:00,
2015-04-18 20:28:00,66.5,54.4,29.63,East,97,2.0,5.0,65,0.00,,---,0.01,0.00,VWS V14.01,2015-04-19 01:28:00,
2015-04-18 20:33:00,66.0,54.3,29.63,ESE,111,2.0,6.0,66,0.00,,---,0.01,0.00,VWS V14.01,2015-04-19 01:33:00,
2015-04-18 20:38:00,65.5,53.4,29.63,ESE,119,5.0,6.0,65,0.00,,---,0.01,0.00,VWS V14.01,2015-04-19 01:38:00,
2015-04-18 20:43:00,65.2,53.6,29.63,ESE,105,5.0,6.0,66,0.00,,---,0.01,0.00,VWS V14.01,2015-04-19 01:43:00,
2015-04-18 20:48:00,64.9,53.3,29.63,ESE,106,4.0,5.0,66,0.00,,---,0.01,0.00,VWS V14.01,2015-04-19 01:48:00,
2015-04-18 20:53:00,64.7,53.1,29.63,ESE,105,2.0,3.0,66,0.00,,---,0.01,0.00,VWS V14.01,2015-04-19 01:53:00,
2015-04-18 20:58:00,64.4,52.8,29.63,ESE,112,3.0,4.0,66,0.00,,---,0.01,0.00,VWS V14.01,2015-04-19 01:58:00,
2015-04-18 21:03:00,64.2,52.6,29.63,ESE,108,4.0,5.0,66,0.00,,---,0.01,0.00,VWS V14.01,2015-04-19 02:03:00,
2015-04-18 21:08:00,64.0,52.0,29.63,ESE,111,5.0,9.0,65,0.00,,---,0.01,0.00,VWS V14.01,2015-04-19 02:08:00,
2015-04-18 21:13:00,63.9,51.9,29.64,East,100,12.0,12.0,65,0.00,,---,0.01,0.00,VWS V14.01,2015-04-19 02:13:00,
2015-04-18 21:18:00,64.0,52.0,29.64,ESE,103,11.0,11.0,65,0.00,,---,0.01,0.00,VWS V14.01,2015-04-19 02:18:00,
2015-04-18 21:23:00,63.8,51.8,29.64,ESE,103,7.0,7.0,65,0.00,,---,0.01,0.00,VWS V14.01,2015-04-19 02:23:00,
2015-04-18 21:28:00,63.7,52.1,29.64,ESE,109,5.0,6.0,66,0.00,,---,0.01,0.00,VWS V14.01,2015-04-19 02:28:00,
2015-04-18 21:33:00,63.6,51.6,29.63,ESE,115,1.0,11.0,65,0.00,,---,0.01,0.00,VWS V14.01,2015-04-19 02:33:00,
2015-04-18 21:38:00,63.5,52.0,29.64,SSE,164,6.0,6.0,66,0.00,,---,0.01,0.00,VWS V14.01,2015-04-19 02:38:00,
2015-04-18 21:43:00,63.3,51.8,29.65,SSE,165,0.0,0.0,66,0.00,,---,0.01,0.00,VWS V14.01,2015-04-19 02:43:00,
2015-04-18 21:48:00,63.2,51.7,29.65,SW,232,2.0,3.0,66,0.00,,---,0.01,0.00,VWS V14.01,2015-04-19 02:48:00,
2015-04-18 21:53:00,63.1,51.6,29.65,SW,231,0.0,0.0,66,0.00,,---,0.01,0.00,VWS V14.01,2015-04-19 02:53:00,
2015-04-18 21:58:00,63.1,51.6,29.65,SW,214,0.0,0.0,66,0.00,,---,0.01,0.00,VWS V14.01,2015-04-19 02:58:00,
2015-04-18 22:03:00,62.9,52.2,29.65,ESE,104,4.0,5.0,68,0.00,,---,0.01,0.00,VWS V14.01,2015-04-19 03:03:00,
2015-04-18 22:08:00,62.7,52.4,29.65,East,101,2.0,3.0,69,0.00,,---,0.01,0.00,VWS V14.01,2015-04-19 03:08:00,
2015-04-18 22:13:00,62.3,52.4,29.65,South,171,0.0,1.0,70,0.00,,---,0.01,0.00,VWS V14.01,2015-04-19 03:13:00,
2015-04-18 22:18:00,62.0,52.1,29.65,SSE,161,3.0,6.0,70,0.00,,---,0.01,0.00,VWS V14.01,2015-04-19 03:18:00,
2015-04-18 22:23:00,61.9,52.0,29.65,SSE,161,0.0,1.0,70,0.00,,---,0.01,0.00,VWS V14.01,2015-04-19 03:23:00,
2015-04-18 22:28:00,61.8,52.3,29.65,SSE,160,1.0,1.0,71,0.00,,---,0.01,0.00,VWS V14.01,2015-04-19 03:28:00,
2015-04-18 22:33:00,61.7,52.2,29.64,SSE,157,0.0,0.0,71,0.00,,---,0.01,0.00,VWS V14.01,2015-04-19 03:33:00,
2015-04-18 22:38:00,61.7,52.6,29.65,South,174,6.0,10.0,72,0.00,,---,0.01,0.00,VWS V14.01,2015-04-19 03:38:00,